Weather History for Galax, VA

Change the Weather History Date:

Friday, January 11, 2013

  Actual Average (KBLF) Record (KBLF)
Temperature  
Mean Temperature 50 °F 34 °F  
Max Temperature 55 °F 42 °F 60 °F (2005)
Min Temperature 44 °F 26 °F -11 °F (1982)
Degree Days  
Heating Degree Days 16 31  
Month to date heating degree days 341  
Since 1 July heating degree days 2106  
Cooling Degree Days 0 0  
Month to date cooling degree days 0  
Year to date cooling degree days 0  
Moisture  
Dew Point 48 °F    
Average Humidity 94    
Maximum Humidity 100    
Minimum Humidity 71    
Precipitation  
Precipitation 0.02 in 0.10 in 0.80 in (1991)
Month to date precipitation 1.04  
Year to date precipitation 1.04  
Snow  
Snow 0.00 in - - ()
Month to date snowfall  
Since 1 July snowfall  
Snow Depth -    
Sea Level Pressure  
Sea Level Pressure 30.24 in    
Wind  
Wind Speed 6 mph (South)    
Max Wind Speed 12 mph    
Max Gust Speed -    
Visibility 5 miles    
Events Fog , Rain    
T = Trace of Precipitation, MM = Missing Value Source: NWS Daily Summary

Daily Weather History Graph

Daily Weather History Graph

Search for Another Location

Airport:

Trip Planner

Search our weather history database for the weather conditions in past years. The results will help you decide how hot, cold, wet, or windy it might be!

Date:

Astronomy

Jan. 11, 2013 Rise Set
Actual Time 7:35 AM EST 5:27 PM EST
Civil Twilight 7:07 AM EST 5:55 PM EST
Nautical Twilight 6:35 AM EST 6:27 PM EST
Astronomical Twilight 6:04 AM EST 6:58 PM EST
Moon 7:08 AM EST (1/11) 5:41 PM EST (1/11)
Length of Visible Light 10h 48m
Length of Day
9h 51m
Waning Crescent, 0% of the Moon is Illuminated
Jan 11
Waning Crescent
Jan 11
New
Jan 18
First Quarter
Jan 26
Full
Feb 3
Last Quarter

Hourly Weather History & Observations

Time (EST) Temp. Windchill Dew Point Humidity Pressure Visibility Wind Dir Wind Speed Gust Speed Precip Events Conditions
12:15 AM 51.8 °F - 42.8 °F 71% 30.40 in 10.0 mi SE 5.8 mph - N/A   Overcast
12:35 AM 51.8 °F - 42.8 °F 71% 30.40 in 10.0 mi SE 6.9 mph - N/A   Overcast
12:55 AM 51.8 °F - 42.8 °F 71% 30.38 in 10.0 mi SE 5.8 mph - N/A   Overcast
1:15 AM 50.0 °F - 44.6 °F 82% 30.37 in 10.0 mi SE 3.5 mph - N/A   Overcast
1:35 AM 50.0 °F - 42.8 °F 76% 30.37 in 10.0 mi SE 8.1 mph - N/A   Overcast
1:55 AM 50.0 °F - 42.8 °F 76% 30.36 in 10.0 mi ESE 6.9 mph - N/A   Overcast
2:15 AM 48.2 °F - 42.8 °F 82% 30.37 in 10.0 mi SE 6.9 mph - N/A   Overcast
2:35 AM 48.2 °F - 44.6 °F 87% 30.37 in 7.0 mi SE 8.1 mph - N/A   Overcast
2:55 AM 46.4 °F 44.3 °F 44.6 °F 93% 30.37 in 5.0 mi SE 4.6 mph - N/A   Drizzle
3:15 AM 46.4 °F 44.3 °F 44.6 °F 93% 30.36 in 7.0 mi SE 4.6 mph - N/A   Overcast
3:35 AM 46.4 °F 42.9 °F 44.6 °F 93% 30.34 in 7.0 mi SE 6.9 mph - N/A   Overcast
3:55 AM 44.6 °F 41.4 °F 44.6 °F 100% 30.34 in 5.0 mi ESE 5.8 mph - N/A Rain Rain
4:15 AM 46.4 °F 42.9 °F 44.6 °F 93% 30.31 in 5.0 mi ESE 6.9 mph - N/A Rain Rain
4:35 AM 46.4 °F 41.9 °F 44.6 °F 93% 30.30 in 10.0 mi East 9.2 mph - N/A   Overcast
4:55 AM 46.4 °F 43.5 °F 44.6 °F 93% 30.29 in 10.0 mi ESE 5.8 mph - N/A   Light Drizzle
5:15 AM 46.4 °F 45.2 °F 46.4 °F 100% 30.31 in 5.0 mi South 3.5 mph - N/A Rain Light Rain
5:35 AM 46.4 °F 45.2 °F 46.4 °F 100% 30.30 in 2.5 mi SSE 3.5 mph - N/A   Overcast
5:55 AM 46.4 °F 41.9 °F 44.6 °F 93% 30.30 in 2.0 mi ESE 9.2 mph - N/A   Overcast
6:15 AM 46.4 °F - 44.6 °F 93% 30.31 in 2.0 mi Calm Calm - N/A   Overcast
6:35 AM 46.4 °F - 44.6 °F 93% 30.31 in 2.5 mi Calm Calm - N/A   Overcast
6:55 AM 46.4 °F - 44.6 °F 93% 30.31 in 1.0 mi Calm Calm - N/A Rain Light Rain
7:15 AM 46.4 °F 44.3 °F 44.6 °F 93% 30.31 in 0.5 mi ESE 4.6 mph - N/A Fog Fog
7:55 AM 46.4 °F 42.4 °F 44.6 °F 93% 30.30 in 0.8 mi ESE 8.1 mph - N/A   Light Drizzle
8:15 AM 46.4 °F 42.9 °F 44.6 °F 93% 30.29 in 0.2 mi SE 6.9 mph - N/A Fog Fog
8:35 AM 46.4 °F 43.5 °F 44.6 °F 93% 30.30 in 0.5 mi SSE 5.8 mph - N/A Fog Fog
8:55 AM 46.4 °F 45.2 °F 44.6 °F 93% 30.31 in 0.2 mi South 3.5 mph - N/A Fog Fog
9:15 AM 46.4 °F - 44.6 °F 93% 30.31 in 0.2 mi Calm Calm - N/A Rain Light Rain
9:35 AM 44.6 °F - 44.6 °F 100% 30.30 in 0.2 mi Calm Calm - N/A Fog Fog
9:55 AM 44.6 °F 42.2 °F 44.6 °F 100% 30.30 in 0.2 mi SSW 4.6 mph - N/A Fog Fog
10:15 AM 44.6 °F 41.4 °F 44.6 °F 100% 30.29 in 0.2 mi South 5.8 mph - 0.01 in Fog Fog
10:35 AM 44.6 °F 41.4 °F 44.6 °F 100% 30.28 in 0.2 mi SSW 5.8 mph - 0.01 in Fog Fog
10:55 AM 44.6 °F 42.2 °F 44.6 °F 100% 30.27 in 0.2 mi South 4.6 mph - N/A Fog Fog
11:15 AM 44.6 °F 40.7 °F 44.6 °F 100% 30.27 in 0.2 mi South 6.9 mph - N/A Rain Light Rain
11:35 AM 44.6 °F 40.2 °F 44.6 °F 100% 30.24 in 0.2 mi South 8.1 mph - 0.01 in Fog Fog
11:55 AM 46.4 °F 42.9 °F 44.6 °F 93% 30.23 in 0.5 mi South 6.9 mph - N/A Fog Fog
12:15 PM 46.4 °F 43.5 °F 44.6 °F 93% 30.22 in 1.5 mi South 5.8 mph - N/A   Overcast
12:35 PM 46.4 °F 44.3 °F 44.6 °F 93% 30.21 in 1.2 mi SSE 4.6 mph - N/A   Overcast
12:55 PM 46.4 °F 45.2 °F 46.4 °F 100% 30.21 in 1.0 mi South 3.5 mph - N/A   Overcast
1:15 PM 48.2 °F - 46.4 °F 93% 30.20 in 0.8 mi SSW 6.9 mph - N/A   Overcast
1:35 PM 48.2 °F - 46.4 °F 93% 30.19 in 0.2 mi SSW 8.1 mph - N/A Fog Fog
1:55 PM 48.2 °F - 46.4 °F 93% 30.19 in 0.2 mi South 5.8 mph - N/A Fog Fog
2:15 PM 48.2 °F - 48.2 °F 100% 30.18 in 0.2 mi South 6.9 mph - N/A Fog Fog
2:35 PM 48.2 °F - 48.2 °F 100% 30.17 in 0.8 mi SSE 5.8 mph - N/A   Overcast
2:55 PM 48.2 °F - 48.2 °F 100% 30.16 in 1.0 mi South 6.9 mph - N/A   Overcast
3:15 PM 51.8 °F - 50.0 °F 94% 30.16 in 5.0 mi South 6.9 mph - N/A   Overcast
3:35 PM 51.8 °F - 51.8 °F 100% 30.15 in 7.0 mi South 6.9 mph - N/A   Overcast
3:55 PM 53.6 °F - 51.8 °F 94% 30.16 in 10.0 mi SSW 8.1 mph - N/A   Overcast
4:15 PM 53.6 °F - 53.6 °F 100% 30.15 in 10.0 mi South 9.2 mph - N/A   Mostly Cloudy
4:35 PM 55.4 °F - 53.6 °F 94% 30.14 in 10.0 mi South 10.4 mph - N/A   Scattered Clouds
4:55 PM 55.4 °F - 53.6 °F 94% 30.14 in 10.0 mi SSW 11.5 mph - N/A   Clear
5:15 PM 55.4 °F - 53.6 °F 94% 30.15 in 10.0 mi South 10.4 mph - N/A   Clear
5:35 PM 55.4 °F - 53.6 °F 94% 30.15 in 10.0 mi SSE 5.8 mph - N/A   Scattered Clouds
5:55 PM 53.6 °F - 53.6 °F 100% 30.14 in 10.0 mi South 5.8 mph - N/A   Scattered Clouds
6:15 PM 53.6 °F - 53.6 °F 100% 30.15 in 10.0 mi South 8.1 mph - N/A   Scattered Clouds
6:35 PM 53.6 °F - 53.6 °F 100% 30.16 in 10.0 mi South 10.4 mph - N/A   Clear
6:55 PM 53.6 °F - 53.6 °F 100% 30.16 in 10.0 mi South 8.1 mph - N/A   Scattered Clouds
7:15 PM 53.6 °F - 53.6 °F 100% 30.16 in 10.0 mi South 10.4 mph - N/A   Clear
7:35 PM 53.6 °F - 53.6 °F 100% 30.17 in 10.0 mi SSW 10.4 mph - N/A   Clear
7:55 PM 53.6 °F - 51.8 °F 94% 30.17 in 10.0 mi SSW 6.9 mph - N/A   Clear
8:15 PM 53.6 °F - 53.6 °F 100% 30.16 in 10.0 mi South 8.1 mph - N/A   Clear
8:35 PM 53.6 °F - 51.8 °F 94% 30.17 in 7.0 mi SSW 6.9 mph - N/A   Clear
8:55 PM 53.6 °F - 51.8 °F 94% 30.16 in 7.0 mi South 4.6 mph - N/A   Clear
9:15 PM 53.6 °F - 51.8 °F 94% 30.16 in 0.5 mi SSW 5.8 mph - N/A Fog Fog
9:35 PM 53.6 °F - 51.8 °F 94% 30.16 in 0.2 mi SSW 4.6 mph - N/A Fog Fog
9:55 PM 51.8 °F - 51.8 °F 100% 30.16 in 0.2 mi SSW 4.6 mph - N/A Fog Fog
10:15 PM 53.6 °F - 51.8 °F 94% 30.17 in 5.0 mi SSW 3.5 mph - N/A   Scattered Clouds
10:35 PM 53.6 °F - 53.6 °F 100% 30.17 in 10.0 mi Calm Calm - N/A   Clear
10:55 PM 53.6 °F - 51.8 °F 94% 30.17 in 1.5 mi Calm Calm - N/A   Mist
11:15 PM 53.6 °F - 53.6 °F 100% 30.17 in 10.0 mi South 5.8 mph - N/A   Clear
11:35 PM 55.4 °F - 53.6 °F 94% 30.17 in 10.0 mi South 4.6 mph - N/A   Clear
11:55 PM 55.4 °F - 53.6 °F 94% 30.16 in 10.0 mi South 5.8 mph - N/A   Clear